TimeCDT,TemperatureF,Dew PointF,Humidity,Sea Level PressureIn,VisibilityMPH,Wind Direction,Wind SpeedMPH,Gust SpeedMPH,PrecipitationIn,Events,Conditions,WindDirDegrees,DateUTC
12:13 AM,51.8,28.4,41,29.89,10.0,SW,19.6,28.8,N/A,,Clear,220,2012-10-11 05:13:00
12:34 AM,51.8,28.4,41,29.89,10.0,SW,21.9,25.3,N/A,,Clear,220,2012-10-11 05:34:00
12:53 AM,51.8,26.6,38,29.89,10.0,SW,21.9,25.3,N/A,,Clear,220,2012-10-11 05:53:00
1:13 AM,51.8,28.4,41,29.88,10.0,SW,18.4,28.8,N/A,,Clear,220,2012-10-11 06:13:00
1:53 AM,51.8,28.4,41,29.88,10.0,SW,20.7,26.5,N/A,,Clear,220,2012-10-11 06:53:00
2:13 AM,51.8,28.4,41,29.88,10.0,SW,18.4,25.3,N/A,,Clear,220,2012-10-11 07:13:00
2:53 AM,51.8,26.6,38,29.89,10.0,SW,18.4,24.2,N/A,,Clear,220,2012-10-11 07:53:00
3:13 AM,51.8,26.6,38,29.88,10.0,SW,17.3,24.2,N/A,,Clear,220,2012-10-11 08:13:00
3:34 AM,51.8,26.6,38,29.88,10.0,SW,19.6,27.6,N/A,,Clear,220,2012-10-11 08:34:00
3:53 AM,51.8,26.6,38,29.89,10.0,SW,18.4,26.5,N/A,,Clear,230,2012-10-11 08:53:00
4:13 AM,51.8,26.6,38,29.89,10.0,SW,15.0,25.3,N/A,,Clear,230,2012-10-11 09:13:00
4:34 AM,51.8,26.6,38,29.91,10.0,WSW,16.1,23.0,N/A,,Clear,250,2012-10-11 09:34:00
4:53 AM,51.8,26.6,38,29.91,10.0,WSW,13.8,-,N/A,,Clear,250,2012-10-11 09:53:00
5:14 AM,51.8,26.6,38,29.92,10.0,WSW,15.0,19.6,N/A,,Clear,250,2012-10-11 10:14:00
5:34 AM,50.0,26.6,40,29.94,10.0,WSW,15.0,18.4,N/A,,Clear,250,2012-10-11 10:34:00
6:14 AM,50.0,28.4,43,29.96,10.0,West,10.4,-,N/A,,Clear,280,2012-10-11 11:14:00
6:33 AM,48.2,28.4,46,29.98,10.0,WNW,10.4,-,N/A,,Clear,290,2012-10-11 11:33:00
6:53 AM,46.4,30.2,53,30.00,10.0,NNW,13.8,26.5,N/A,,Clear,340,2012-10-11 11:53:00
7:14 AM,44.6,30.2,57,30.01,10.0,NNW,17.3,-,N/A,,Clear,330,2012-10-11 12:14:00
7:33 AM,42.8,30.2,61,30.02,10.0,NNW,13.8,21.9,N/A,,Clear,340,2012-10-11 12:33:00
7:53 AM,42.8,30.2,61,30.03,10.0,NNW,12.7,26.5,N/A,,Clear,340,2012-10-11 12:53:00
8:14 AM,42.8,30.2,61,30.06,10.0,North,9.2,19.6,N/A,,Mostly Cloudy,350,2012-10-11 13:14:00
8:33 AM,42.8,32.0,66,30.06,10.0,North,16.1,21.9,N/A,,Overcast,0,2012-10-11 13:33:00
8:53 AM,42.8,32.0,66,30.06,10.0,North,21.9,27.6,N/A,,Mostly Cloudy,10,2012-10-11 13:53:00
9:13 AM,42.8,32.0,66,30.08,10.0,North,18.4,27.6,N/A,,Mostly Cloudy,0,2012-10-11 14:13:00
9:33 AM,42.8,32.0,66,30.09,10.0,North,20.7,27.6,N/A,,Scattered Clouds,0,2012-10-11 14:33:00
9:54 AM,42.8,32.0,66,30.11,10.0,North,17.3,25.3,N/A,,Mostly Cloudy,0,2012-10-11 14:54:00
10:13 AM,42.8,32.0,66,30.13,10.0,North,17.3,25.3,N/A,,Overcast,0,2012-10-11 15:13:00
10:33 AM,42.8,32.0,66,30.13,10.0,North,17.3,25.3,N/A,,Mostly Cloudy,0,2012-10-11 15:33:00
10:54 AM,42.8,32.0,66,30.15,10.0,North,17.3,23.0,N/A,,Overcast,0,2012-10-11 15:54:00
11:13 AM,44.6,32.0,61,30.15,10.0,North,16.1,21.9,N/A,,Overcast,0,2012-10-11 16:13:00
11:33 AM,44.6,30.2,57,30.16,10.0,NNE,19.6,25.3,N/A,,Mostly Cloudy,20,2012-10-11 16:33:00
11:53 AM,44.6,30.2,57,30.17,10.0,NNE,16.1,-,N/A,,Mostly Cloudy,20,2012-10-11 16:53:00
12:13 PM,44.6,28.4,53,30.17,10.0,NNE,19.6,23.0,N/A,,Mostly Cloudy,30,2012-10-11 17:13:00
12:53 PM,44.6,26.6,49,30.19,10.0,North,17.3,24.2,N/A,,Overcast,10,2012-10-11 17:53:00
1:14 PM,44.6,26.6,49,30.20,10.0,North,15.0,18.4,N/A,,Overcast,10,2012-10-11 18:14:00
1:33 PM,46.4,26.6,46,30.18,10.0,North,15.0,23.0,N/A,,Mostly Cloudy,0,2012-10-11 18:33:00
1:53 PM,46.4,28.4,50,30.18,10.0,North,15.0,26.5,N/A,,Scattered Clouds,10,2012-10-11 18:53:00
2:14 PM,46.4,28.4,50,30.20,10.0,North,15.0,25.3,N/A,,Scattered Clouds,0,2012-10-11 19:14:00
2:33 PM,46.4,28.4,50,30.22,10.0,North,13.8,20.7,N/A,,Scattered Clouds,0,2012-10-11 19:33:00
2:54 PM,46.4,26.6,46,30.23,10.0,North,12.7,23.0,N/A,,Mostly Cloudy,350,2012-10-11 19:54:00
3:14 PM,48.2,26.6,43,30.23,10.0,North,16.1,20.7,N/A,,Scattered Clouds,10,2012-10-11 20:14:00
3:53 PM,46.4,23.0,40,30.24,10.0,NNW,11.5,21.9,N/A,,Mostly Cloudy,340,2012-10-11 20:53:00
4:14 PM,46.4,23.0,40,30.24,10.0,North,13.8,18.4,N/A,,Overcast,0,2012-10-11 21:14:00
5:14 PM,44.6,19.4,37,30.25,10.0,North,10.4,-,N/A,,Overcast,0,2012-10-11 22:14:00
5:33 PM,44.6,19.4,37,30.25,10.0,North,8.1,-,N/A,,Overcast,350,2012-10-11 22:33:00
5:53 PM,44.6,19.4,37,30.25,10.0,North,6.9,-,N/A,,Overcast,350,2012-10-11 22:53:00
6:33 PM,44.6,15.8,31,30.27,10.0,North,10.4,17.3,N/A,,Overcast,350,2012-10-11 23:33:00
6:53 PM,42.8,14.0,31,30.27,10.0,North,6.9,-,N/A,,Overcast,350,2012-10-11 23:53:00
7:13 PM,42.8,14.0,31,30.28,10.0,North,5.8,-,N/A,,Scattered Clouds,350,2012-10-12 00:13:00
7:34 PM,42.8,15.8,34,30.30,10.0,NNW,6.9,-,N/A,,Clear,340,2012-10-12 00:34:00
8:13 PM,41.0,19.4,42,30.32,10.0,NNW,5.8,-,N/A,,Clear,340,2012-10-12 01:13:00
8:34 PM,41.0,19.4,42,30.32,10.0,NNW,8.1,-,N/A,,Clear,340,2012-10-12 01:34:00
8:53 PM,37.4,19.4,48,30.33,10.0,NNW,8.1,-,N/A,,Clear,330,2012-10-12 01:53:00
9:13 PM,35.6,19.4,52,30.34,10.0,NNW,9.2,-,N/A,,Clear,330,2012-10-12 02:13:00
9:34 PM,35.6,19.4,52,30.35,10.0,NNW,8.1,-,N/A,,Clear,330,2012-10-12 02:34:00
9:53 PM,33.8,19.4,56,30.35,10.0,NNW,5.8,-,N/A,,Clear,330,2012-10-12 02:53:00
10:33 PM,33.8,19.4,56,30.37,10.0,NNW,6.9,-,N/A,,Clear,340,2012-10-12 03:33:00
10:53 PM,32.0,19.4,60,30.38,10.0,NNW,5.8,-,N/A,,Clear,340,2012-10-12 03:53:00
11:14 PM,32.0,19.4,60,30.39,10.0,NNW,6.9,-,N/A,,Clear,340,2012-10-12 04:14:00
11:33 PM,32.0,17.6,55,30.39,10.0,NNW,5.8,-,N/A,,Clear,340,2012-10-12 04:33:00
11:53 PM,30.2,19.4,64,30.39,10.0,NNW,4.6,-,N/A,,Clear,340,2012-10-12 04:53:00